Wind_Speed
7 8 10 13 16 18 19 21 23 24 26 27 28 30 31 32 33 33 33 34 34 35 35 35 34 34 34 35 34 35 34 34 35 36 35 34 32 29 28 27 27 26 25
6 4 2 3 5 7 10 13 15 17 19 22 23 25 26 28 29 29 30 31 32 33 34 34 34 33 33 34 33 33 33 35 35 35 34 32 31 29 27 27 26 26 24
14 12 10 8 5 2 2 4 7 10 12 14 15 17 19 21 22 23 25 26 27 29 31 31 30 31 31 30 30 30 30 30 31 30 30 28 28 27 26 26 25 24 23
18 15 13 12 10 9 7 5 3 4 5 7 10 12 13 15 16 18 20 21 22 23 24 24 25 25 25 25 25 25 25 26 26 26 25 25 25 24 24 24 23 23 22
20 19 17 15 13 11 9 8 7 7 7 7 8 10 10 12 13 15 16 17 17 18 19 20 19 19 19 20 20 20 21 20 20 20 20 21 21 22 22 22 22 22 22
20 19 18 17 15 14 12 11 10 9 9 10 10 11 11 12 13 14 15 16 17 17 17 16 16 16 15 15 16 16 15 15 16 17 17 18 19 20 20 21 21 21 22
20 20 19 18 17 16 15 14 13 12 11 11 12 12 12 14 14 15 16 16 17 18 18 18 17 16 15 15 14 13 13 14 14 14 15 16 17 19 20 20 20 20 21
21 21 21 20 19 18 17 17 16 15 14 14 14 14 13 14 14 15 15 16 17 19 19 19 18 17 16 15 15 14 14 14 14 14 15 15 16 17 18 18 19 20 20
21 22 22 22 21 21 20 20 19 18 17 17 16 16 15 14 14 13 14 14 15 16 17 18 18 18 17 16 15 15 14 14 14 13 13 13 14 15 15 16 17 17 18
21 22 22 23 22 22 22 22 21 21 21 20 19 18 17 15 14 13 12 12 12 14 15 16 17 17 17 16 15 14 13 12 12 12 12 12 12 12 12 14 14 15 15
22 22 22 23 23 23 23 23 23 24 24 23 22 20 19 17 15 12 10 9 9 9 11 13 15 15 15 15 14 14 14 12 11 10 10 9 9 8 9 9 10 11 12
21 22 23 23 24 24 24 24 24 25 25 25 24 24 22 19 17 14 11 8 5 5 7 9 11 13 14 14 14 14 13 11 10 9 8 7 7 6 6 6 6 6 6
21 21 22 23 24 24 25 25 25 25 26 26 26 26 25 22 20 17 13 10 6 2 2 6 9 11 13 13 14 13 12 10 10 8 6 5 5 4 4 3 3 3 3
21 21 22 23 23 24 25 25 25 26 26 26 27 27 26 25 23 21 18 15 11 8 5 4 7 9 11 12 12 11 11 10 9 8 6 6 5 5 5 5 4 4 3
20 21 21 22 22 23 24 25 25 26 26 26 27 27 27 26 25 24 22 20 17 14 12 11 10 11 12 12 11 11 11 10 9 8 7 7 7 7 7 7 6 6 6
19 20 21 21 22 22 23 24 25 26 26 26 26 26 26 26 26 26 25 23 21 19 18 17 16 14 14 13 12 12 12 11 10 10 10 9 9 9 8 9 9 9 9
18 19 20 21 21 22 23 24 24 25 25 25 26 26 25 26 26 26 26 25 24 23 21 20 19 18 17 16 15 14 14 14 13 13 12 11 11 11 11 11 10 10 9
17 18 19 20 21 21 22 23 24 24 24 24 24 25 25 25 25 25 26 26 25 24 23 22 21 20 19 18 18 17 17 16 15 15 14 14 13 13 12 11 10 9 8
14 16 18 19 20 21 21 22 23 23 23 23 23 23 23 23 23 24 24 24 25 25 24 23 23 22 21 20 20 19 18 17 16 16 15 14 13 12 11 10 9 7 6
12 14 15 17 18 19 20 21 22 22 22 22 22 22 22 22 22 22 22 22 22 23 23 23 22 22 21 20 20 19 18 17 16 15 14 13 12 10 9 8 7 6 5
10 11 13 14 16 18 19 20 20 20 21 20 20 20 20 20 20 20 21 21 21 20 20 20 20 19 19 18 18 17 16 15 14 13 12 11 10 9 7 6 5 5 5
9 10 11 12 13 15 16 17 18 19 19 19 18 18 18 18 19 19 19 19 19 19 19 18 18 17 17 16 16 15 14 13 12 11 10 9 8 8 7 6 5 5 6
10 10 10 10 11 12 13 14 15 16 17 17 17 16 16 16 16 17 17 18 18 18 18 17 17 16 16 15 14 14 13 12 11 10 9 8 8 7 6 5 5 5 6
11 11 10 10 10 10 11 11 12 13 14 14 14 14 13 13 13 13 14 15 15 16 16 16 16 16 15 15 14 13 12 12 11 10 9 8 7 6 6 5 6 7 8
12 12 12 11 11 10 10 10 10 10 11 11 11 11 11 10 10 9 9 10 11 12 13 13 14 14 14 13 13 12 11 11 10 9 8 7 7 6 6 7 8 9 10
15 15 14 14 13 12 12 11 10 10 9 9 9 9 9 8 7 6 5 5 5 6 7 8 8 9 9 9 9 9 8 8 7 7 7 7 7 8 8 9 10 10 12
Wind_Direction
301 283 272 269 263 259 261 261 261 260 260 261 262 263 265 266 266 266 265 261 258 257 257 257 258 256 258 258 257 257 256 255 254 254 253 252 251 252 256 259 261 261 261
35 29 345 304 277 262 259 259 261 262 262 264 264 265 265 265 265 264 262 260 257 257 256 256 258 258 259 260 259 257 255 254 254 253 253 250 248 249 253 256 258 258 260
58 60 63 61 56 41 308 273 269 270 268 268 267 267 266 264 262 260 259 257 256 255 254 255 256 256 256 257 255 252 251 251 252 252 250 248 247 248 251 253 255 257 258
57 57 56 55 53 49 43 31 360 317 296 283 277 273 270 266 264 263 260 257 254 251 249 250 250 249 247 247 247 247 248 249 249 248 248 247 247 248 250 252 254 256 258
50 48 46 45 44 40 34 25 14 357 339 320 303 292 285 278 273 270 268 264 261 257 253 248 243 242 239 238 240 242 244 245 245 245 245 245 245 247 250 252 255 256 258
44 42 39 37 35 31 26 20 10 0 350 338 322 305 295 287 280 277 274 270 265 260 256 253 247 246 244 243 241 240 239 241 240 240 241 243 243 246 248 252 255 256 258
39 36 33 31 28 26 23 18 12 5 358 349 338 323 310 299 291 284 279 275 266 257 252 250 247 246 247 246 246 245 244 242 241 240 240 242 245 246 249 251 253 255 257
36 35 33 32 31 29 26 22 19 13 5 357 349 339 328 315 302 292 283 279 271 258 249 244 241 241 242 242 241 242 242 243 242 242 241 243 245 246 247 250 253 254 256
36 36 36 36 34 32 30 27 23 18 12 6 0 353 343 331 318 303 291 281 272 260 250 244 238 235 235 235 237 239 240 240 240 243 242 244 244 245 247 248 250 253 255
35 35 35 34 33 31 31 29 27 24 20 15 9 3 356 348 336 321 305 290 274 259 246 238 234 232 231 231 232 233 233 234 237 238 238 240 242 243 247 249 250 253 255
34 35 34 34 33 32 32 30 28 25 23 20 16 12 7 0 352 341 325 305 285 262 245 234 228 224 221 221 223 225 225 226 226 227 231 237 240 240 240 245 252 252 254
34 35 34 33 33 32 31 29 28 27 25 24 22 20 16 12 9 3 354 338 309 267 242 227 218 213 210 211 213 216 218 221 218 217 223 229 230 230 232 237 237 239 244
32 32 32 31 31 30 30 29 28 27 26 26 26 25 24 23 24 25 23 21 19 8 221 206 202 201 201 200 201 203 204 206 204 203 207 212 204 199 196 194 192 196 207
32 30 30 30 29 29 29 29 28 28 28 28 28 29 30 31 34 36 38 41 45 55 75 134 168 177 179 180 181 181 182 185 183 183 180 170 161 155 154 155 151 146 138
30 28 27 27 27 27 28 28 28 29 29 30 31 33 35 37 40 43 45 48 54 63 75 92 117 137 148 154 159 160 161 163 162 160 155 149 143 138 135 132 126 119 112
28 28 27 27 27 27 27 27 28 29 30 32 33 36 39 42 45 48 51 54 59 67 75 86 97 109 122 129 134 140 143 144 144 141 138 133 130 128 125 121 118 113 109
26 26 25 25 26 27 27 27 27 29 31 34 36 39 42 45 48 51 54 58 63 68 75 82 90 98 106 113 119 123 127 129 129 129 128 125 123 121 118 117 115 112 108
23 23 23 24 25 26 27 27 28 29 32 34 37 41 44 48 51 54 57 61 66 70 75 81 88 94 99 104 110 114 117 118 119 120 120 117 115 115 115 115 113 110 103
20 21 22 23 25 26 27 28 28 30 32 35 39 42 45 49 53 56 60 64 68 72 76 81 85 91 95 99 104 108 112 114 114 114 114 113 113 113 113 112 107 100 91
14 16 18 20 22 24 26 27 28 30 32 36 39 43 46 49 53 57 61 65 69 73 76 80 83 87 91 94 98 102 106 108 109 110 111 111 111 111 110 105 97 86 71
1 7 11 15 18 21 24 26 27 29 31 34 38 43 46 50 54 58 61 65 69 73 76 80 83 86 89 92 96 99 103 105 107 108 108 107 106 105 101 94 81 66 50
342 349 357 3 9 14 19 22 25 27 29 32 36 40 45 49 54 58 61 64 68 72 75 79 82 85 88 91 93 96 99 101 102 102 102 101 99 95 90 80 68 54 41
322 331 337 345 353 1 8 15 20 24 27 30 33 37 42 47 52 57 61 65 68 71 74 77 79 82 85 87 89 91 93 94 94 95 94 93 90 84 76 65 50 35 22
310 315 321 327 332 340 349 359 7 14 20 24 28 32 37 43 49 55 60 64 67 70 73 75 77 78 80 82 83 84 85 85 85 84 82 77 72 65 52 36 21 8 359
303 304 308 312 317 320 326 334 345 356 5 13 19 23 28 33 41 49 56 61 65 68 71 72 74 75 76 77 77 77 76 75 73 69 63 53 43 30 18 7 358 351 346
293 295 297 300 302 305 308 312 318 327 338 348 357 5 10 15 20 28 39 49 58 63 65 65 65 66 68 69 68 66 62 59 54 47 37 26 16 8 360 354 349 345 342
Height
5768 5769 5770 5772 5773 5775 5778 5780 5782 5784 5786 5788 5789 5790 5791 5792 5792 5793 5794 5795 5795 5797 5798 5799 5800 5802 5804 5805 5807 5808 5809 5811 5813 5814 5816 5818 5820 5822 5824 5826 5827 5828 5829
5769 5768 5769 5770 5771 5772 5773 5775 5777 5778 5779 5780 5781 5782 5783 5783 5783 5784 5784 5785 5786 5788 5789 5790 5792 5793 5795 5797 5798 5799 5801 5802 5804 5806 5808 5810 5812 5814 5817 5819 5821 5822 5823
5772 5771 5771 5771 5771 5771 5771 5772 5772 5773 5774 5774 5775 5775 5775 5775 5776 5776 5776 5777 5777 5779 5780 5782 5783 5785 5786 5788 5789 5791 5793 5794 5796 5798 5800 5802 5805 5807 5810 5812 5814 5816 5817
5776 5775 5774 5773 5772 5772 5771 5771 5771 5771 5771 5770 5770 5770 5770 5770 5770 5770 5769 5770 5770 5771 5772 5774 5776 5777 5779 5780 5782 5784 5786 5787 5789 5792 5794 5796 5799 5801 5804 5806 5808 5810 5811
5781 5779 5777 5776 5774 5773 5772 5771 5770 5770 5769 5768 5767 5767 5766 5765 5765 5764 5764 5764 5764 5765 5766 5767 5769 5771 5772 5774 5775 5777 5779 5782 5784 5786 5789 5791 5793 5796 5798 5800 5802 5804 5806
5785 5783 5781 5779 5777 5775 5773 5772 5770 5769 5767 5766 5764 5763 5762 5761 5760 5759 5758 5758 5759 5759 5761 5762 5763 5765 5766 5768 5770 5772 5774 5777 5779 5781 5784 5786 5788 5791 5793 5795 5797 5799 5800
5789 5786 5784 5781 5779 5776 5774 5772 5770 5768 5766 5764 5762 5759 5758 5756 5755 5754 5753 5752 5752 5753 5754 5756 5758 5759 5761 5763 5765 5768 5770 5772 5775 5777 5779 5782 5784 5786 5788 5790 5792 5793 5795
5793 5790 5786 5784 5781 5778 5776 5773 5770 5768 5765 5763 5760 5757 5754 5752 5749 5748 5747 5746 5746 5746 5747 5749 5752 5754 5756 5759 5762 5764 5766 5768 5771 5773 5775 5777 5779 5781 5783 5785 5787 5788 5790
5796 5793 5790 5786 5783 5781 5777 5774 5771 5768 5765 5761 5758 5754 5751 5747 5744 5742 5741 5740 5739 5739 5741 5743 5746 5749 5751 5754 5757 5760 5762 5765 5767 5769 5771 5773 5775 5777 5779 5781 5782 5784 5785
5800 5796 5793 5790 5786 5783 5780 5776 5773 5769 5765 5761 5756 5752 5748 5744 5740 5738 5736 5734 5733 5734 5735 5737 5740 5743 5746 5750 5753 5756 5759 5761 5764 5766 5768 5770 5772 5773 5775 5777 5778 5780 5781
5803 5800 5797 5793 5789 5786 5783 5779 5775 5771 5766 5761 5756 5751 5747 5742 5738 5734 5731 5730 5729 5729 5730 5732 5735 5738 5742 5745 5749 5752 5755 5758 5761 5763 5765 5767 5769 5770 5772 5773 5775 5776 5778
5807 5804 5800 5797 5793 5789 5786 5781 5777 5773 5768 5763 5757 5752 5746 5741 5736 5732 5729 5726 5725 5726 5726 5728 5730 5734 5738 5742 5745 5749 5752 5755 5758 5761 5763 5765 5766 5768 5769 5771 5772 5774 5775
5811 5808 5804 5800 5797 5793 5789 5785 5780 5775 5770 5765 5759 5754 5748 5742 5737 5732 5729 5726 5724 5724 5724 5725 5728 5731 5735 5739 5743 5747 5750 5753 5756 5759 5761 5763 5765 5766 5768 5770 5771 5772 5773
5814 5811 5808 5804 5800 5796 5792 5788 5783 5779 5773 5768 5762 5757 5751 5745 5739 5735 5731 5727 5725 5724 5724 5724 5726 5729 5733 5737 5741 5745 5749 5752 5755 5758 5760 5762 5764 5766 5768 5769 5770 5771 5772
5818 5814 5811 5807 5804 5800 5796 5791 5787 5782 5777 5772 5766 5761 5755 5750 5745 5740 5735 5732 5729 5727 5726 5727 5728 5731 5734 5738 5742 5745 5749 5752 5755 5758 5760 5762 5764 5766 5768 5769 5770 5771 5772
5820 5817 5814 5810 5807 5803 5799 5794 5790 5785 5781 5776 5771 5766 5761 5756 5751 5746 5742 5738 5735 5733 5732 5732 5733 5735 5738 5741 5744 5747 5750 5753 5756 5759 5761 5763 5765 5767 5768 5770 5771 5772 5773
5823 5820 5817 5813 5810 5806 5802 5798 5794 5789 5785 5780 5776 5771 5766 5762 5758 5754 5750 5746 5743 5741 5740 5739 5740 5741 5743 5745 5748 5750 5753 5756 5758 5760 5763 5765 5766 5768 5770 5771 5772 5773 5774
5825 5822 5819 5816 5812 5809 5805 5801 5797 5793 5789 5785 5781 5776 5772 5768 5765 5761 5758 5755 5752 5750 5748 5748 5748 5748 5749 5751 5753 5755 5757 5759 5761 5763 5765 5767 5769 5770 5772 5773 5774 5775 5775
5827 5824 5821 5818 5815 5812 5808 5805 5801 5797 5793 5789 5785 5782 5778 5775 5771 5768 5765 5763 5760 5758 5757 5756 5756 5756 5756 5757 5758 5760 5762 5764 5765 5767 5769 5770 5772 5773 5774 5775 5776 5776 5777
5828 5826 5823 5820 5817 5814 5811 5808 5804 5801 5797 5794 5790 5787 5784 5781 5778 5775 5772 5770 5768 5766 5765 5764 5763 5763 5763 5764 5765 5766 5767 5769 5770 5771 5773 5774 5775 5776 5777 5777 5777 5778 5777
5829 5827 5824 5822 5819 5817 5814 5810 5807 5804 5801 5798 5795 5792 5789 5786 5783 5781 5779 5777 5775 5773 5772 5771 5770 5770 5770 5770 5771 5772 5772 5773 5774 5775 5776 5777 5777 5778 5778 5779 5779 5778 5778
5828 5827 5825 5823 5821 5818 5816 5813 5810 5807 5805 5802 5799 5796 5794 5791 5789 5786 5784 5782 5781 5779 5778 5777 5777 5776 5776 5776 5776 5777 5777 5778 5778 5778 5779 5779 5780 5780 5780 5780 5779 5779 5778
5827 5826 5824 5823 5821 5819 5817 5815 5812 5810 5807 5805 5802 5800 5798 5796 5793 5791 5789 5788 5786 5785 5783 5782 5782 5781 5781 5781 5781 5781 5781 5781 5781 5781 5781 5781 5781 5781 5781 5781 5780 5779 5778
5826 5824 5823 5822 5820 5819 5817 5815 5813 5811 5809 5807 5805 5803 5801 5799 5797 5796 5794 5792 5791 5789 5788 5787 5786 5786 5785 5785 5784 5784 5784 5784 5784 5784 5784 5784 5783 5783 5782 5782 5781 5779 5778
5823 5822 5821 5820 5819 5818 5816 5815 5814 5812 5810 5808 5806 5805 5803 5801 5800 5799 5797 5796 5795 5794 5792 5791 5790 5790 5789 5789 5788 5788 5787 5787 5787 5786 5786 5785 5785 5784 5783 5782 5780 5779 5777
5820 5819 5818 5817 5816 5815 5814 5814 5812 5811 5810 5808 5807 5805 5804 5802 5801 5800 5799 5798 5797 5796 5795 5794 5794 5793 5792 5791 5791 5790 5789 5789 5788 5787 5787 5786 5785 5783 5782 5781 5779 5777 5775